Location: Bastelaar
(51.0950°N, 3.8602°E)
Time: 17:02:56
(UTC+00:00)

Cosmos 44 Rocket - Pass Details

Date: 18 November 2025
Orbit: 637 x 741 km, 65.1° (Epoch: 12 December)

Event Time Altitude Azimuth Distance (km) Brightness Sun altitude
Rises 18:17:46 0° 231° (SW) 3,001 7.4 -22.4°
Reaches altitude 10° 18:20:04 10° 235° (SW) 2,107 6.6 -22.8°
Maximum altitude 18:24:49 61° 316° (NW) 784 3.6 -23.5°
Enters shadow 18:26:19 41° 16° (NNE) 1,003 3.9 -23.8°
